Weather History for Monroe, MI

Change the Weather History Date:

Monday, February 18, 2013

  Actual Average Record
Temperature  
Mean Temperature 32 °F -  
Max Temperature 46 °F 34 °F 57 °F (2011)
Min Temperature 17 °F 20 °F -7 °F (1979)
Degree Days  
Heating Degree Days 34    
Moisture  
Dew Point 23 °F    
Average Humidity 64    
Maximum Humidity 80    
Minimum Humidity 45    
Precipitation  
Precipitation 0.00 in - - ()
Sea Level Pressure  
Sea Level Pressure 29.95 in    
Wind  
Wind Speed 9 mph (SSE)    
Max Wind Speed 18 mph    
Max Gust Speed 25 mph    
Visibility 10 miles    
Events Rain    
Averages and records for this station are not official NWS values.
T = Trace of Precipitation, MM = Missing Value Source: NWS Daily Summary

Daily Weather History Graph

Daily Weather History Graph

Search for Another Location

Airport:

Trip Planner

Search our weather history database for the weather conditions in past years. The results will help you decide how hot, cold, wet, or windy it might be!

Date:

Astronomy

Feb. 18, 2013 Rise Set
Actual Time 7:25 AM EST 6:10 PM EST
Civil Twilight 6:56 AM EST 6:39 PM EST
Nautical Twilight 6:24 AM EST 7:11 PM EST
Astronomical Twilight 5:51 AM EST 7:44 PM EST
Moon 11:53 AM EST (2/18) 2:06 AM EST (2/18)
Length of Visible Light 11h 42m
Length of Day
10h 45m
First Quarter, 58% of the Moon is Illuminated
Feb 18
First Quarter
Feb 25
Full
Mar 4
Last Quarter
Mar 11
New
Mar 19
First Quarter

Hourly Weather History & Observations

Time (EST) Temp. Windchill Dew Point Humidity Pressure Visibility Wind Dir Wind Speed Gust Speed Precip Events Conditions
12:13 AM 17.6 °F 12.3 °F 12.2 °F 79% 30.19 in 10.0 mi South 3.5 mph - N/A   Clear
12:33 AM 17.6 °F 12.3 °F 12.2 °F 79% 30.19 in 10.0 mi SSE 3.5 mph - N/A   Clear
1:13 AM 21.2 °F 13.6 °F 14.0 °F 74% 30.19 in 10.0 mi SSE 5.8 mph - N/A   Clear
1:54 AM 21.2 °F 14.9 °F 15.8 °F 80% 30.19 in 10.0 mi South 4.6 mph - N/A   Clear
2:14 AM 21.2 °F 14.9 °F 15.8 °F 80% 30.18 in 10.0 mi South 4.6 mph - N/A   Clear
2:34 AM 21.2 °F 13.6 °F 15.8 °F 80% 30.19 in 10.0 mi SSE 5.8 mph - N/A   Clear
2:54 AM 21.2 °F 14.9 °F 15.8 °F 80% 30.19 in 10.0 mi South 4.6 mph - N/A   Clear
3:14 AM 21.2 °F 13.6 °F 15.8 °F 80% 30.18 in 10.0 mi SSE 5.8 mph - N/A   Clear
3:34 AM 21.2 °F 11.7 °F 15.8 °F 80% 30.17 in 10.0 mi South 8.1 mph - N/A   Clear
3:54 AM 21.2 °F 12.6 °F 15.8 °F 80% 30.16 in 10.0 mi South 6.9 mph - N/A   Clear
4:14 AM 23.0 °F 13.9 °F 15.8 °F 74% 30.16 in 10.0 mi South 8.1 mph - N/A   Clear
4:35 AM 23.0 °F 13.9 °F 15.8 °F 74% 30.15 in 10.0 mi South 8.1 mph - N/A   Clear
4:55 AM 23.0 °F 13.9 °F 15.8 °F 74% 30.14 in 10.0 mi SSE 8.1 mph - N/A   Clear
5:15 AM 23.0 °F 13.9 °F 15.8 °F 74% 30.14 in 10.0 mi SSE 8.1 mph - N/A   Clear
5:35 AM 23.0 °F 13.9 °F 15.8 °F 74% 30.13 in 10.0 mi SSE 8.1 mph - N/A   Clear
5:55 AM 23.0 °F 13.9 °F 15.8 °F 74% 30.13 in 10.0 mi SSE 8.1 mph - N/A   Scattered Clouds
6:15 AM 23.0 °F 13.9 °F 15.8 °F 74% 30.12 in 10.0 mi SSE 8.1 mph - N/A   Overcast
6:35 AM 23.0 °F 11.1 °F 15.8 °F 74% 30.12 in 10.0 mi SSE 12.7 mph - N/A   Overcast
6:55 AM 23.0 °F 13.1 °F 15.8 °F 74% 30.10 in 10.0 mi SSE 9.2 mph - N/A   Overcast
7:35 AM 24.8 °F 14.0 °F 15.8 °F 69% 30.09 in 10.0 mi SSE 11.5 mph - N/A   Overcast
7:56 AM 24.8 °F 14.0 °F 15.8 °F 69% 30.09 in 10.0 mi SSE 11.5 mph - N/A   Overcast
8:31 AM 24.8 °F 14.6 °F 15.8 °F 69% 30.07 in 10.0 mi SSE 10.4 mph - N/A   Scattered Clouds
8:51 AM 26.6 °F 14.7 °F 15.8 °F 64% 30.06 in 10.0 mi SSE 15.0 mph 19.6 mph N/A   Clear
9:11 AM 26.6 °F 15.7 °F 15.8 °F 64% 30.05 in 10.0 mi SSE 12.7 mph 18.4 mph N/A   Clear
9:31 AM 28.4 °F 16.2 °F 15.8 °F 59% 30.03 in 10.0 mi SSE 17.3 mph 23.0 mph N/A   Clear
9:51 AM 28.4 °F 17.0 °F 15.8 °F 59% 30.02 in 10.0 mi SSE 15.0 mph 20.7 mph N/A   Clear
10:11 AM 30.2 °F 18.1 °F 17.6 °F 60% 30.01 in 10.0 mi SSE 18.4 mph 25.3 mph N/A   Clear
10:51 AM 32.0 °F 22.1 °F 17.6 °F 55% 30.00 in 10.0 mi SSE 13.8 mph 19.6 mph N/A   Clear
11:12 AM 33.8 °F 26.4 °F 17.6 °F 52% 29.99 in 10.0 mi SSE 9.2 mph - N/A   Clear
11:32 AM 35.6 °F 26.2 °F 17.6 °F 48% 29.97 in 10.0 mi South 15.0 mph - N/A   Clear
11:52 AM 37.4 °F 29.3 °F 19.4 °F 48% 29.96 in 10.0 mi SSE 12.7 mph 19.6 mph N/A   Clear
12:12 PM 37.4 °F 29.3 °F 19.4 °F 48% 29.95 in 10.0 mi SSE 12.7 mph 19.6 mph N/A   Clear
12:32 PM 39.2 °F 31.2 °F 19.4 °F 45% 29.94 in 10.0 mi SSE 13.8 mph 20.7 mph N/A   Clear
12:52 PM 39.2 °F 30.8 °F 21.2 °F 49% 29.93 in 10.0 mi SSE 15.0 mph 19.6 mph N/A   Clear
1:12 PM 41.0 °F 33.5 °F 21.2 °F 45% 29.91 in 10.0 mi SSE 13.8 mph 19.6 mph N/A   Clear
1:32 PM 42.8 °F 35.4 °F 23.0 °F 46% 29.89 in 10.0 mi South 15.0 mph 19.6 mph N/A   Clear
1:52 PM 42.8 °F 37.0 °F 24.8 °F 49% 29.88 in 10.0 mi SSE 10.4 mph - N/A   Clear
2:13 PM 44.6 °F 38.4 °F 24.8 °F 46% 29.88 in 10.0 mi South 12.7 mph - N/A   Clear
2:33 PM 44.6 °F 38.8 °F 26.6 °F 49% 29.87 in 10.0 mi SSE 11.5 mph - N/A   Clear
3:13 PM 46.4 °F 41.1 °F 28.4 °F 50% 29.84 in 10.0 mi SSE 11.5 mph - N/A   Clear
3:33 PM 46.4 °F 39.8 °F 28.4 °F 50% 29.83 in 10.0 mi SSE 16.1 mph - N/A   Clear
3:53 PM 46.4 °F 40.7 °F 30.2 °F 53% 29.83 in 10.0 mi South 12.7 mph - N/A   Clear
4:33 PM 46.4 °F 41.9 °F 30.2 °F 53% 29.80 in 10.0 mi SSE 9.2 mph - N/A   Clear
4:53 PM 44.6 °F 39.2 °F 32.0 °F 61% 29.79 in 10.0 mi SSE 10.4 mph - N/A   Scattered Clouds
5:13 PM 44.6 °F 39.7 °F 32.0 °F 61% 29.78 in 10.0 mi SSE 9.2 mph - N/A   Clear
5:34 PM 44.6 °F 40.2 °F 33.8 °F 66% 29.77 in 10.0 mi SSE 8.1 mph - N/A   Mostly Cloudy
6:14 PM 46.4 °F 41.9 °F 33.8 °F 62% 29.76 in 10.0 mi SSE 9.2 mph - N/A   Overcast
6:34 PM 44.6 °F 39.2 °F 35.6 °F 71% 29.76 in 10.0 mi SSE 10.4 mph - N/A Rain Light Rain
6:54 PM 44.6 °F 38.4 °F 33.8 °F 66% 29.76 in 10.0 mi SSE 12.7 mph - N/A   Overcast
7:14 PM 44.6 °F 38.4 °F 33.8 °F 66% 29.76 in 10.0 mi South 12.7 mph - N/A   Overcast
7:54 PM 44.6 °F 39.7 °F 33.8 °F 66% 29.74 in 10.0 mi SSE 9.2 mph - N/A   Mostly Cloudy
8:14 PM 44.6 °F 39.2 °F 33.8 °F 66% 29.73 in 10.0 mi SSE 10.4 mph - N/A   Overcast
8:35 PM 44.6 °F 38.8 °F 33.8 °F 66% 29.71 in 10.0 mi SSE 11.5 mph - N/A   Overcast
9:15 PM 46.4 °F 41.1 °F 33.8 °F 62% 29.69 in 10.0 mi South 11.5 mph 18.4 mph N/A   Overcast
9:35 PM 46.4 °F 40.7 °F 33.8 °F 62% 29.69 in 10.0 mi South 12.7 mph 16.1 mph N/A   Overcast
9:55 PM 46.4 °F 41.1 °F 33.8 °F 62% 29.68 in 10.0 mi South 11.5 mph - N/A   Overcast
10:15 PM 46.4 °F 41.5 °F 33.8 °F 62% 29.67 in 10.0 mi South 10.4 mph - N/A   Overcast
10:35 PM 46.4 °F 42.9 °F 33.8 °F 62% 29.65 in 10.0 mi SSE 6.9 mph - N/A   Overcast
10:55 PM 44.6 °F 40.2 °F 33.8 °F 66% 29.64 in 10.0 mi SSE 8.1 mph - N/A   Overcast
11:15 PM 44.6 °F 40.7 °F 33.8 °F 66% 29.63 in 10.0 mi SSE 6.9 mph - N/A   Overcast
11:51 PM 46.4 °F 40.7 °F 33.8 °F 62% 29.61 in 10.0 mi South 12.7 mph - N/A   Overcast